Location: Colonia Mina de C?rbuni
(46.1667°N, 22.7167°E)
Time: 16:53:03
(UTC+00:00)

Cosmos 1844 Rocket - Pass Details

Date: 04 February 2023
Orbit: 825 x 843 km, 71.0° (Epoch: 29 March)

Event Time Altitude Azimuth Distance (km) Brightness Sun altitude
Rises 17:25:32 0° 329° (NNW) 3,374 6.2 -18.9°
Reaches altitude 10° 17:28:02 10° 324° (NW) 2,436 5.5 -19.3°
Maximum altitude 17:33:22 48° 251° (WSW) 1,076 3.6 -20.2°
Drops below altitude 10° 17:38:39 10° 179° (S) 2,421 5.1 -21.1°
Sets 17:41:09 0° 173° (S) 3,352 5.8 -21.6°
